リニア彗星

C/2004 B1 ( LINEAR )

English version
Home page
Updated on October 7, 2008

---------------------------------------------------------------------

・ プロフィール

発見日 2004年1月29日
発見光度 19.1等
発見者 Lincoln Laboratory Near-Earth Asteroid Research project

・ 写真集

・ 軌道要素

The following orbital elements are taken from MPC 57131:

Epoch 2006 Jan. 25.0 TT = JDT 2453760.5
T 2006 Feb. 7.8875 TT                                   MPC
q   1.601940             (2000.0)            P               Q
z  -0.000806       Peri.  327.9000      +0.2581066      -0.3194697
 +/-0.000000       Node   272.8018      -0.5736009      -0.8100795
e   1.001292       Incl.  114.0965      -0.7774078      +0.4916405
From 974 observations 2004 Jan. 28-2006 July 6, mean residual 0".6.

・ 星図

・ 光度変化

        m1 =  8.5 + 5 logΔ + 7.0 log r(t + 70)  [   ,-70]  (              〜2005年11月29日)
        m1 =  8.1 + 5 logΔ + 9.0 log r(t + 70)  [-70,120]  (2005年11月29日〜2006年 6月 7日)
        m1 = 10.5 + 5 logΔ + 5.0 log r          [120,   ]  (2006年 6月 7日〜              )

---------------------------------------------------------------------

軌道要素はMPCのEphemerides and Orbital Elementsに掲載されたものです。
星図は StellaNavigator Ver.2.0 for Windows (アストロアーツ 編著 / アスキー出版局刊) で作成したものです。
光度グラフはComet for Windowsで作成したものです。

---------------------------------------------------------------------

Copyright(C) Seiichi Yoshida (comet@aerith.net). All rights reserved.